| time (UTC) | temp F | wind direction | speed knots | gust knots | rain 1hr in | rain 24hr in | rain mn in | humidity % | barometer mb |
| 20260506201532 | 65 | 360 | 8.7 | 13.9 | 0.00 | 0.01 | 0.00 | 56 | 1012.4 |
| 20260506200030 | 66 | 360 | 7.0 | 14.8 | 0.00 | 0.01 | 0.00 | 56 | 1012.1 |
| 20260506194529 | 67 | 360 | 6.1 | 13.0 | 0.00 | 0.01 | 0.00 | 57 | 1012.1 |
| 20260506193025 | 66 | 360 | 7.0 | 15.6 | 0.00 | 0.01 | 0.01 | 57 | 1011.9 |
| 20260506191526 | 67 | 360 | 12.2 | 19.1 | 0.00 | 0.01 | 0.01 | 57 | 1011.8 |
| 20260506190027 | 68 | 360 | 11.3 | 19.1 | 0.00 | 0.01 | 0.01 | 58 | 1011.9 |
| 20260506184525 | 72 | 360 | 10.4 | 16.5 | 0.00 | 0.01 | 0.01 | 57 | 1011.8 |
| 20260506183025 | 75 | 360 | 4.3 | 7.8 | 0.00 | 0.01 | 0.01 | 53 | 1011.7 |
| 20260506181525 | 75 | 360 | 1.7 | 3.5 | 0.00 | 0.01 | 0.01 | 53 | 1011.6 |
| 20260506180023 | 73 | 360 | 2.6 | 5.2 | 0.00 | 0.01 | 0.01 | 53 | 1011.9 |
| 20260506174522 | 73 | 360 | 2.6 | 5.2 | 0.00 | 0.01 | 0.01 | 52 | 1011.5 |
| 20260506173022 | 73 | 360 | 2.6 | 7.8 | 0.00 | 0.01 | 0.01 | 53 | 1011.4 |
| 20260506171523 | 72 | 360 | 0.9 | 2.6 | 0.01 | 0.01 | 0.01 | 52 | 1011.5 |
| 20260506170021 | 69 | 360 | 1.7 | 9.6 | 0.01 | 0.01 | 0.01 | 53 | 1011.7 |
| 20260506164520 | 67 | 360 | 3.5 | 10.4 | 0.01 | 0.01 | 0.01 | 51 | 1011.8 |
| 20260506163019 | 64 | 360 | 1.7 | 7.0 | 0.01 | 0.01 | 0.01 | 53 | 1012.1 |
| 20260506161519 | 63 | 360 | 5.2 | 11.3 | 0.00 | 0.00 | 0.00 | 56 | 1012.6 |
| 20260506160016 | 63 | 360 | 8.7 | 15.6 | 0.00 | 0.00 | 0.00 | 55 | 1014.0 |
| 20260506154512 | 65 | 360 | 7.0 | 15.6 | 0.00 | 0.00 | 0.00 | 55 | 1012.3 |
| 20260506153010 | 67 | 360 | 7.8 | 13.0 | 0.00 | 0.00 | 0.00 | 55 | 1011.9 |
| 20260506151504 | 69 | 360 | 7.0 | 14.8 | 0.00 | 0.00 | 0.00 | 56 | 1011.3 |
| 20260506150002 | 76 | 360 | 1.7 | 3.5 | 0.00 | 0.00 | 0.00 | 51 | 1011.1 |
| 20260506144609 | 76 | 360 | 2.6 | 7.8 | 0.00 | 0.00 | 0.00 | 51 | 1010.7 |
| 20260506143059 | 77 | 360 | 3.5 | 9.6 | 0.00 | 0.00 | 0.00 | 51 | 1010.2 |
| 20260506141558 | 77 | 360 | 2.6 | 8.7 | 0.00 | 0.00 | 0.00 | 50 | 1009.7 |
| 20260506140058 | 76 | 360 | 3.5 | 7.0 | 0.00 | 0.00 | 0.00 | 52 | 1009.9 |
| 20260506134600 | 75 | 360 | 3.5 | 8.7 | 0.00 | 0.00 | 0.00 | 53 | 1009.9 |
| 20260506133059 | 75 | 360 | 3.5 | 8.7 | 0.00 | 0.00 | 0.00 | 53 | 1009.5 |
| 20260506131556 | 75 | 360 | 1.7 | 5.2 | 0.00 | 0.00 | 0.00 | 54 | 1009.5 |
| 20260506130054 | 74 | 360 | 2.6 | 7.0 | 0.00 | 0.00 | 0.00 | 54 | 1009.1 |
| 20260506124552 | 74 | 360 | 1.7 | 8.7 | 0.00 | 0.00 | 0.00 | 54 | 1009.0 |
| 20260506123052 | 74 | 360 | 2.6 | 5.2 | 0.00 | 0.00 | 0.00 | 54 | 1008.9 |
| 20260506121551 | 74 | 360 | 1.7 | 4.3 | 0.00 | 0.00 | 0.00 | 55 | 1008.9 |
| 20260506120051 | 74 | 360 | 0.9 | 3.5 | 0.00 | 0.00 | 0.00 | 55 | 1009.0 |
| 20260506114550 | 74 | 360 | 0.9 | 3.5 | 0.00 | 0.00 | 0.00 | 55 | 1008.9 |
| 20260506113050 | 74 | 360 | 0.0 | 2.6 | 0.00 | 0.00 | 0.00 | 55 | 1009.0 |
| 20260506111547 | 75 | 360 | 0.9 | 3.5 | 0.00 | 0.00 | 0.00 | 55 | 1009.1 |
| 20260506110047 | 75 | 360 | 0.0 | 0.0 | 0.00 | 0.00 | 0.00 | 55 | 1009.0 |
| 20260506104554 | 75 | 360 | 0.0 | 0.0 | 0.00 | 0.00 | 0.00 | 55 | 1008.8 |
| 20260506103044 | 75 | 360 | 0.0 | 2.6 | 0.00 | 0.00 | 0.00 | 55 | 1008.7 |
| 20260506101545 | 75 | 360 | 0.0 | 1.7 | 0.00 | 0.00 | 0.00 | 55 | 1008.6 |
| 20260506100044 | 75 | 360 | 0.9 | 4.3 | 0.00 | 0.00 | 0.00 | 55 | 1008.4 |
| 20260506094543 | 75 | 360 | 3.5 | 7.8 | 0.00 | 0.00 | 0.00 | 55 | 1008.0 |
| 20260506093044 | 75 | 360 | 3.5 | 8.7 | 0.00 | 0.00 | 0.00 | 55 | 1007.9 |
| 20260506091543 | 75 | 360 | 4.3 | 10.4 | 0.00 | 0.00 | 0.00 | 56 | 1007.8 |
| 20260506090041 | 75 | 360 | 4.3 | 10.4 | 0.00 | 0.00 | 0.00 | 56 | 1007.6 |
| 20260506084540 | 75 | 360 | 3.5 | 7.8 | 0.00 | 0.00 | 0.00 | 56 | 1007.5 |
| 20260506083041 | 75 | 360 | 5.2 | 10.4 | 0.00 | 0.00 | 0.00 | 55 | 1007.6 |
| 20260506081538 | 75 | 360 | 3.5 | 9.6 | 0.00 | 0.00 | 0.00 | 55 | 1007.5 |
| 20260506073036 | 75 | 360 | 5.2 | 10.4 | 0.00 | 0.00 | 0.00 | 55 | 1008.0 |
| 20260506071535 | 75 | 360 | 5.2 | 15.6 | 0.00 | 0.00 | 0.00 | 55 | 1008.1 |
| 20260506061533 | 75 | 360 | 7.0 | 11.3 | 0.00 | 0.00 | 0.00 | 56 | 1008.0 |
| 20260506044537 | 76 | 360 | 3.5 | 13.9 | 0.00 | 0.00 | 0.00 | 56 | 1008.1 |
| 20260506043025 | 76 | 360 | 6.1 | 11.3 | 0.00 | 0.00 | 0.00 | 56 | 1007.9 |
| 20260506041528 | 76 | 360 | 4.3 | 8.7 | 0.00 | 0.00 | 0.00 | 57 | 1007.9 |
| 20260506040029 | 76 | 360 | 2.6 | 9.6 | 0.00 | 0.00 | 0.00 | 57 | 1007.7 |
| 20260506034525 | 76 | 360 | 3.5 | 10.4 | 0.00 | 0.00 | 0.00 | 58 | 1007.6 |
| 20260506033019 | 77 | 360 | 3.5 | 7.0 | 0.00 | 0.00 | 0.00 | 59 | 1007.4 |
| 20260506031518 | 77 | 360 | 2.6 | 5.2 | 0.00 | 0.00 | 0.00 | 59 | 1007.2 |
| 20260506030013 | 77 | 360 | 2.6 | 7.8 | 0.00 | 0.00 | 0.00 | 59 | 1007.0 |
| 20260506024517 | 78 | 360 | 2.6 | 5.2 | 0.00 | 0.00 | 0.00 | 59 | 1006.8 |
| 20260506023016 | 78 | 360 | 2.6 | 7.0 | 0.00 | 0.00 | 0.00 | 58 | 1006.6 |
| 20260506021509 | 78 | 360 | 2.6 | 5.2 | 0.00 | 0.00 | 0.00 | 58 | 1006.1 |
| 20260506020008 | 79 | 360 | 1.7 | 7.0 | 0.00 | 0.00 | 0.00 | 58 | 1006.1 |
| 20260506014507 | 79 | 360 | 3.5 | 8.7 | 0.00 | 0.00 | 0.00 | 57 | 1005.8 |
| 20260506013004 | 80 | 360 | 3.5 | 8.7 | 0.00 | 0.00 | 0.00 | 56 | 1005.6 |
| 20260506011507 | 80 | 360 | 3.5 | 10.4 | 0.00 | 0.00 | 0.00 | 56 | 1005.6 |
| 20260506010003 | 81 | 360 | 3.5 | 7.0 | 0.00 | 0.00 | 0.00 | 55 | 1005.6 |
| 20260506004600 | 81 | 360 | 3.5 | 8.7 | 0.00 | 0.00 | 0.00 | 54 | 1005.6 |
| 20260506003059 | 82 | 360 | 3.5 | 8.7 | 0.00 | 0.00 | 0.00 | 53 | 1005.8 |
| 20260506001601 | 82 | 360 | 4.3 | 7.0 | 0.00 | 0.00 | 0.00 | 53 | 1005.9 |
| 20260505234558 | 83 | 360 | 4.3 | 9.6 | 0.00 | 0.00 | 0.00 | 52 | 1005.6 |
| 20260505233056 | 83 | 360 | 5.2 | 12.2 | 0.00 | 0.00 | 0.00 | 51 | 1005.4 |
| 20260505231555 | 83 | 360 | 5.2 | 13.9 | 0.00 | 0.00 | 0.00 | 51 | 1005.4 |
| 20260505230057 | 83 | 360 | 7.0 | 13.0 | 0.00 | 0.00 | 0.00 | 50 | 1005.3 |
| 20260505224550 | 84 | 360 | 7.0 | 13.0 | 0.00 | 0.00 | 0.00 | 50 | 1005.2 |
| 20260505223046 | 84 | 360 | 8.7 | 14.8 | 0.00 | 0.00 | 0.00 | 49 | 1005.1 |
| 20260505221556 | 84 | 360 | 5.2 | 13.9 | 0.00 | 0.00 | 0.00 | 49 | 1005.2 |
| 20260505220055 | 84 | 360 | 6.1 | 15.6 | 0.00 | 0.00 | 0.00 | 49 | 1005.4 |
| 20260505214550 | 85 | 360 | 8.7 | 15.6 | 0.00 | 0.00 | 0.00 | 48 | 1005.3 |
| 20260505213040 | 86 | 360 | 5.2 | 12.2 | 0.00 | 0.00 | 0.00 | 48 | 1005.7 |
| 20260505211539 | 86 | 360 | 8.7 | 18.2 | 0.00 | 0.00 | 0.00 | 46 | 1006.0 |
| 20260505210044 | 86 | 360 | 7.0 | 16.5 | 0.00 | 0.00 | 0.00 | 46 | 1005.8 |
| 20260505204533 | 85 | 360 | 4.3 | 15.6 | 0.00 | 0.00 | 0.00 | 47 | 1006.0 |
| 20260505203033 | 85 | 360 | 8.7 | 15.6 | 0.00 | 0.00 | 0.00 | 48 | 1006.1 |